Preview of NWS' New Version of Forecast
This preview is not operational and should not be used for support decisions.
Latest weather observations around

Haleyville, Posey Field Airport (K1M4)

Using International System of Units (Switch to English Units)
Date/ Time (CST) Wind (kph) Vis. (km) Weather Sky Cond. Temp (°C) Rel. Humidity Wind Chill (°C) Heat Index (°C) Pressure Precip. (cm)
Air Dwpt 6 hour Altimeter (hPa) Sea level (hPa) 1 hr 3 hr 6 hr
Max Min
Feb 25 17:08 Calm 16.09 Mostly Cloudy FEW011 SCT023 BKN120 12 12     100%     1021        
Feb 25 16:56 Calm 16.09 Mostly Cloudy FEW011 SCT017 BKN023 12 12     97%     1020.7        
Feb 25 16:36 W 8 16.09 Mostly Cloudy SCT011 SCT017 BKN110 12 12     100%     1021        
Feb 25 16:29 Calm 16.09 Cloudy BKN011 BKN017 OVC110 12 12     100%     1020.7        
Feb 25 16:07 WNW 8 16.09 Cloudy BKN009 BKN013 OVC110 12 12     100%     1020.7        
Feb 25 15:56 Calm 16.09 Cloudy SCT009 OVC110 12 12     97%     1020 1022.4      
Feb 25 15:43 Calm 16.09 Cloudy BKN009 OVC110 12 12     100%     1020        
Feb 25 14:56 SW 8 16.09 Cloudy FEW010 OVC014 12 11     93%     1020.7 1022.9      
Feb 25 13:56 SW 8 16.09 Cloudy FEW009 OVC018 12 12     100%     1020 1022.3      
Feb 25 13:17 W 5 16.09 Cloudy FEW008 OVC016 12 12     100%     1020        
Feb 25 12:56 SSW 9 16.09 Cloudy SCT010 OVC018 12 12     100%     1020 1021.5      
Feb 25 12:51 S 9 16.09 Cloudy SCT010 OVC016 12 12     100%     1019.7        
Feb 25 12:39 WSW 8 16.09 Cloudy FEW008 OVC014 12 12     100%     1020        
Feb 25 12:17 Calm 16.09 Cloudy FEW006 BKN016 OVC021 12 12     100%     1019        
Feb 25 11:56 SW 8 16.09 Cloudy BKN006 OVC021 12 12     100%     1020 1021.8     0
Feb 25 11:43 WSW 8 16.09 Cloudy BKN006 OVC021 12 12     100%     1020        
Feb 25 11:38 SSE 9 16.09 Cloudy SCT006 OVC021 12 12     100%     1019        
Feb 25 10:56 8 16.09 Cloudy BKN006 OVC010 12 12     100%     1020.3 1022.1      
Feb 25 10:31 SSW 9 16.09 Cloudy BKN006 BKN019 OVC025 12 12     100%     1021.3        
Feb 25 10:09 Calm 16.09 Cloudy OVC004 11 11     100%     1020.7        
Feb 25 09:56 S 11 16.09 Cloudy OVC006 11 11     100%     1019.3 1021.1 0    
Feb 25 08:56 Calm 16.09 Light Rain BKN004 OVC011 11 11     100%     1021 1022.7 0 0  
Feb 25 08:14   16.09 Light Rain BKN004 OVC100 11 11     100%     1019.3   0    
Feb 25 07:56 5 16.09 Light Rain BKN006 OVC014 11 11     100%     1019.3 1021.2 0    
Feb 25 07:49 W 9 16.09 Light Rain OVC004 11 11     100%     1020.7   0    
Feb 25 06:56 SW 9 16.09 Light Rain BKN006 OVC009 11 11     100%     1020 1021.9 0    
Feb 25 06:17 WSW 9 16.09 Light Rain FEW005 BKN011 OVC110 11 11     100%     1019.3   0    
Feb 25 06:03 Calm 16.09 Light Rain BKN009 OVC100 11 11     100%     1018.6   0    
Feb 25 05:56 Calm 16.09 Light Rain FEW011 OVC110 11 11     100%     1018.6 1020.4 0   1
Feb 25 04:56 SSW 8 16.09 Light Rain OVC100 11 11     100%     1018 1019.6 0    
Feb 25 03:56 Calm 16.09 Light Rain FEW008 BKN055 OVC100 11 11     100%     1016.9 1018.6 0    
Feb 25 02:56 5 16.09 Light Rain FEW009 BKN035 OVC080 11 11     100%     1016.6 1018.2 0 1  
Feb 25 02:37 8 11.27 Heavy Rain SCT007 BKN016 OVC060 11 11     100%     1016.6   0    
Feb 25 02:31 9 11.27 Heavy Rain BKN009 BKN017 OVC060 11 11     100%     1016.6   0    
Feb 25 02:16 NW 17 11.27 Rain FEW005 BKN047 OVC060 11 11     100%     1016.9   0    
Feb 25 01:56 NW 11 14.48 Light Rain BKN008 OVC050 12 12     100%     1017.3 1018.8 1    
Feb 25 01:31 NW 17 11.27 Heavy Rain BKN006 OVC013 13 13     100%     1017.3   1    
Feb 25 01:16 NNW 15 6.44 Heavy Rain and Fog/Mist SCT006 BKN010 OVC020 15 15     100%     1015.9   0    
Feb 25 01:08 WNW 21 14.48 Light Rain FEW010 OVC020 17 16     94%     1015.2   0    
Feb 25 00:56   16.09 Cloudy OVC020 21 19     90%     1013.9 1014.7      
Feb 24 23:56 SSW 24 16.09 Cloudy OVC018 21 19     93%     1013.9 1014.8      
Feb 24 22:56 S 24 16.09 Cloudy OVC018 20 19     96%     1013.9 1015      
Feb 24 21:56   16.09 Cloudy BKN016 OVC060 20 19     96%     1014.2 1015.2      
Feb 24 21:24 S 24 16.09 Cloudy SCT016 OVC070 20 19     94%     1014.6        
Feb 24 20:56 SSW 30 16.09 Cloudy BKN016 OVC075 20 19     96%     1014.6 1015.5      
Feb 24 20:18 S 28 16.09 Mostly Cloudy BKN016 20 19     94%     1014.2        
Feb 24 19:56 S 24 16.09 Partly Cloudy SCT016 20 19     93%     1014.2 1015.3      
Feb 24 18:56 S 26 16.09 Mostly Clear FEW032 19 19     97%     1013.9 1015.1      
Feb 24 17:56 S 15 16.09 Mostly Clear FEW100 20 19     93%     1014.6 1015.6 0   0
Feb 24 16:56 S 17 16.09 Light Rain FEW029 OVC065 21 18     84%     1015.2 1016.2 0    
Feb 24 15:56 S 18 16.09 Cloudy OVC110 22 19     82%   23 1014.6 1015.6      
Feb 24 15:33 S 28 16.09 Cloudy FEW027 OVC110 22 19     83%   22 1014.6        
Feb 24 15:20 S 28 16.09 Cloudy BKN027 BKN038 OVC110 22 18     78%   22 1014.6        
Feb 24 14:56 S 22 16.09 Mostly Cloudy FEW027 BKN032 BKN048 23 18     76%   23 1014.9 1016      
Feb 24 14:17 S 28 16.09 Cloudy BKN030 BKN038 OVC055 23 18     73%   23 1015.2        
Feb 24 13:56 S 22 16.09 Cloudy BKN028 BKN044 OVC055 23 18     74%   24 1015.6 1016.6      
Feb 24 12:56 S 22 16.09 Mostly Cloudy SCT026 BKN032 BKN039 23 19     76%   24 1016.9 1018      
Feb 24 11:56 S 30 16.09 Mostly Cloudy BKN024 BKN030 24 19     76%   24 1018 1019 0   0
Feb 24 10:56 S 21 16.09 Cloudy BKN021 BKN030 OVC038 22 19     82%   23 1019.7 1020.8      
Feb 24 09:56 SSW 17 16.09 Mostly Cloudy BKN015 BKN027 BKN032 21 19     90%     1020.3 1021.7      
Feb 24 08:56 SSW 21 16.09 Cloudy OVC010 20 19     96%     1021 1022.3   0  
Feb 24 08:53 SSW 22 16.09 Cloudy OVC010 19 19     100%     1021        
Feb 24 07:56 SSW 18 16.09 Cloudy OVC006 19 19     100%     1021 1022.1 0    
Feb 24 06:56 SSW 15 6.44 Light Rain and Fog/Mist OVC006 19 19     100%     1020.3 1021.4 0    
Feb 24 05:56 S 22 16.09 Cloudy OVC008 19 19     100%     1019.7 1021     0
Feb 24 04:56 SSW 22 16.09 Cloudy OVC008 19 19     100%     1020 1020.9      
Feb 24 03:41 S 17 16.09 Cloudy OVC008 18 18     100%     1019.7        
Feb 24 03:27 S 13 16.09 Cloudy BKN010 BKN013 OVC065 18 18     100%     1020        
Feb 24 02:56 S 15 16.09 Cloudy FEW012 OVC065 17 17     100%     1020 1021.1   0  
Feb 24 01:56 S 11 16.09 Cloudy SCT019 OVC070 17 17     100%     1021 1022.1      
Feb 24 01:31 S 11 16.09 Cloudy BKN022 BKN034 OVC075 18 18     100%     1021.3        
Feb 24 00:56 Calm 12.87 Cloudy FEW029 BKN075 OVC090 17 17     100%     1021.7 1023 0    
Feb 23 23:56 Calm 12.87 Light Rain SCT025 BKN032 OVC050 17 17     100%     1022.4 1023.6 0   1
Feb 23 23:37 SW 9 14.48 Light Rain SCT024 BKN029 OVC036 17 17     100%     1022.7   0    
Feb 23 22:56 S 5 8.05 Rain and Fog/Mist SCT035 BKN065 OVC085 17 17     100%     1022.7 1024 0    
Feb 23 21:56 Calm 6.44 Rain and Fog/Mist FEW065 SCT075 OVC095 17 17     100%     1023.4 1024.8 0    
Feb 23 20:56 Calm 16.09 Cloudy FEW075 OVC110 18 15     81%     1023.4 1024.9   0  
Feb 23 19:56 Calm 16.09 Cloudy OVC095 20 14     70%     1023.7 1024.9 0    
Feb 23 18:56 SSE 9 16.09 Cloudy OVC110 21 14     68%     1024.1 1025.3      
Feb 23 17:56 SSE 8 11.27 Clear CLR 21 14     66%     1024.4 1025.6      
Feb 23 16:56 SSE 9 16.09 Mostly Clear FEW120 22 14     59%   22 1024.1 1025.3      
Feb 23 15:56 SW 13 16.09 Clear CLR 24 13     50%   24 1024.4 1025.4      
Feb 23 14:56 SSW 15 16.09 Clear CLR 24 14     52%   24 1024.4 1025.4      
Feb 23 13:56 SSW 15 16.09 Clear CLR 24 14     54%   24 1025.4 1026.2      
Feb 23 12:56 9 16.09 Clear CLR 23 14     56%   23 1026.4 1027.4      
Feb 23 11:56 S 17 16.09 Partly Cloudy SCT030 22 14     61%   22 1027.8 1028.9      
Feb 23 11:47 S 18 16.09 Mostly Cloudy BKN030 22 15     65%   22 1028.1        
Feb 23 10:56 SSW 15 16.09 Cloudy FEW020 BKN027 OVC032 21 18     84%     1028.5 1029.8      
Feb 23 09:56 SW 15 16.09 Cloudy BKN018 OVC023 21 18     84%     1029.1 1030.2      
Feb 23 09:41 SW 15 16.09 Mostly Cloudy BKN018 BKN023 21 18     83%     1029.1        
Feb 23 08:56 S 9 16.09 Mostly Clear FEW003 19 19     97%     1029.1 1030.3      
Feb 23 07:56 S 8 11.27 Cloudy OVC003 17 17     100%     1028.5 1029.9      
Feb 23 07:23 S 11 9.66 Fog/Mist BKN003 17 17     100%     1028.1        
Feb 23 06:56 S 9 11.27 Mostly Clear FEW003 17 17     100%     1027.4 1028.8      
Feb 23 05:56 S 8 16.09 Clear CLR 17 17     100%     1027.1 1028.5      
Feb 23 04:56 SSW 11 16.09 Mostly Clear FEW037 17 17     100%     1026.4 1027.6      
Feb 23 03:56 S 13 16.09 Clear CLR 17 17     100%     1026.8 1028.1      
Feb 23 02:56 S 15 16.09 Clear CLR 18 18     97%     1027.1 1028.2      
Feb 23 01:56 S 13 16.09 Clear   18 17     93%     1027.4 1028.7      
Feb 23 00:56 S 11 16.09 Clear CLR 18 17     93%     1027.1 1028.4      
Feb 22 23:56 S 13 16.09 Clear CLR 19 17     90%     1027.1 1028.3      
Feb 22 22:56 SSE 17 16.09 Clear CLR 19 17     87%     1027.1 1028.4      
Feb 22 21:56 S 18 16.09 Clear CLR 20 18     87%     1027.4 1028.3      
Feb 22 20:56 SSE 13 16.09 Clear CLR 20 18     87%     1027.1 1028.3      
Feb 22 19:56 SSE 11 16.09 Clear CLR 21 18     84%     1027.1 1028.1      
Feb 22 18:56 SSE 17 16.09 Clear CLR 21 18     84%     1026.4 1027.7      
Feb 22 17:56 Calm 16.09 Clear CLR 21 19     90%     1026.4 1027.6     0
Jun 12 02:56 S 8 16.09 Clear CLR 22 21     91%   23 1020.7 1021      
Jun 11 11:56 SSW 17 16.09 Partly Cloudy SCT075 29 21     61%   32 1022 1022.4      
Jun 10 23:56 ESE 5 16.09 Clear CLR 19 17     90%       1020.7      
Jun 10 12:56 9 16.09 Partly Cloudy SCT055 28 16     46%   28 1019.7 1020.5      
Jun 09 04:56 Calm 12.87 Clear CLR 12 12     97%     1014.6 1015.8      
Jun 08 23:56 N 5 16.09 Clear CLR 16 13     86%     1014.9 1016.2      
Jun 06 12:56 Calm 16.09 Mostly Cloudy BKN085 BKN110 22 21     93%   22 1010.8 1011.6 0   1
Jun 06 00:48 Calm 4.83 Fog/Mist FEW120 21 21     100%     1010.8   0    
Jun 05 22:37 S 8 16.09 Mostly Cloudy BKN005 22 21     94%   23 1010.8        
Notice The following observation data may not be complete
Jun 05 20:09   16.09 Partly Cloudy FEW015 SCT025          %